Date String (YYYY-MM-DD hh:mm:ss) UTC,Instrument flags,absolute air pressure of the measurement (hPa),sample flow rate (lpm),inlet stack bypass flow (lpm),air temperature of the measurement (°C),ambient temperature measured by the external sensor (°C),aerosol sample conditioner tube jacket temperature (°C),OPC LED temperature (°C),internal box temperature (°C),relative humidity of the measurement (%),span deviation,mass concentration of particles derived from Lorenz-Mie calculation of OPC scattering (μg/m³),mass concentration of particles derived from Lorenz-Mie calculation of OPC scattering (μg/m³),mass concentration of particles derived from Lorenz-Mie calculation of OPC scattering (μg/m³)
DateTimeUTC,F1_M11,P_M11,Q1_M11,Q2_M11,T1_M11,T2_M11,T3_M11,T4_M11,T5_M11,U1_M11,ZSPAN_M11,X0_M11,X2_M11,X1_M11
2023-11-29 15:00:00,SystemResetWarning,0826.2,5.01,000.00,018.8,018.0,000.0,027.2,020.0,8.3,0000.0,0002.96,0001.44,0001.21
2023-11-29 15:01:00,SystemResetWarning,0826.2,5.01,000.00,018.8,018.0,000.0,027.2,020.0,8.3,0000.0,0002.87,0001.43,0001.22
2023-11-29 15:02:00,SystemResetWarning,0826.1,4.99,000.00,018.8,018.0,000.0,027.2,020.0,9.0,0000.0,0002.89,0001.45,0001.24
2023-11-29 15:03:00,SystemResetWarning,0826.1,4.99,000.00,018.8,018.1,000.0,027.2,020.0,9.2,0000.0,0002.96,0001.48,0001.26
2023-11-29 15:04:00,SystemResetWarning,0826.2,5.00,000.00,018.8,018.1,000.0,027.2,020.0,8.8,0000.0,0002.95,0001.48,0001.26
2023-11-29 15:05:00,SystemResetWarning,0826.2,5.01,000.00,018.8,018.1,000.0,027.2,020.0,8.5,0000.0,0002.92,0001.47,0001.26
2023-11-29 15:06:00,SystemResetWarning,0826.2,5.00,000.00,018.8,018.1,000.0,027.2,020.0,8.3,0000.0,0002.84,0001.43,0001.27
2023-11-29 15:07:00,SystemResetWarning,0826.1,4.99,000.00,018.9,018.1,000.0,027.1,020.0,8.4,0000.0,0002.81,0001.43,0001.28
2023-11-29 15:08:00,SystemResetWarning,0826.0,5.01,000.00,018.9,018.1,000.0,027.1,020.0,8.1,0000.0,0002.81,0001.41,0001.27
2023-11-29 15:09:00,SystemResetWarning,0826.0,5.02,000.00,018.9,018.2,000.0,027.1,020.1,7.8,0000.0,0002.84,0001.42,0001.26
2023-11-29 15:10:00,SystemResetWarning,0826.1,5.00,000.00,018.9,018.2,000.0,027.1,020.1,7.7,0000.0,0002.56,0001.40,0001.24
2023-11-29 15:11:00,SystemResetWarning,0826.1,4.99,000.00,018.9,018.2,000.0,027.1,020.1,7.9,0000.0,0001.79,0001.40,0001.23
2023-11-29 15:12:00,SystemResetWarning,0826.2,5.00,000.00,018.9,018.2,000.0,027.2,020.1,8.7,0000.0,0001.76,0001.38,0001.22
2023-11-29 15:13:00,SystemResetWarning,0826.1,5.02,000.00,018.9,018.2,000.0,027.2,020.1,8.9,0000.0,0001.70,0001.34,0001.19
2023-11-29 15:14:00,SystemResetWarning,0826.1,5.00,000.00,018.9,018.3,000.0,027.2,020.1,8.9,0000.0,0001.61,0001.29,0001.17
2023-11-29 15:15:00,SystemResetWarning,0826.2,4.99,000.00,018.9,018.3,000.0,027.2,020.1,8.6,0000.0,0001.64,0001.29,0001.15
2023-11-29 15:16:00,SystemResetWarning,0826.2,4.99,000.00,019.0,018.3,000.0,027.2,020.2,8.5,0000.0,0001.80,0001.30,0001.14
2023-11-29 15:17:00,SystemResetWarning,0826.1,5.01,000.00,019.0,018.3,000.0,027.2,020.2,8.1,0000.0,0001.81,0001.30,0001.13
2023-11-29 15:18:00,SystemResetWarning,0826.1,5.01,000.00,019.0,018.3,000.0,027.2,020.2,8.1,0000.0,0002.00,0001.33,0001.13
2023-11-29 15:19:00,SystemResetWarning,0826.2,5.01,000.00,019.0,018.3,000.0,027.2,020.2,8.3,0000.0,0003.45,0001.33,0001.13
2023-11-29 15:20:00,SystemResetWarning,0826.2,4.99,000.00,019.0,018.3,000.0,027.2,020.2,8.1,0000.0,0004.16,0001.35,0001.16
2023-11-29 15:21:00,SystemResetWarning,0826.1,4.99,000.00,019.0,018.3,000.0,027.2,020.2,8.0,0000.0,0004.18,0001.36,0001.18
2023-11-29 15:22:00,SystemResetWarning,0826.0,4.99,000.00,019.0,018.4,000.0,027.2,020.2,8.0,0000.0,0004.16,0001.37,0001.20
2023-11-29 15:23:00,SystemResetWarning,0826.0,5.00,000.00,019.0,018.4,000.0,027.2,020.3,8.5,0000.0,0004.20,0001.39,0001.21
2023-11-29 15:24:00,SystemResetWarning,0826.0,5.01,000.00,019.1,018.4,000.0,027.2,020.3,8.8,0000.0,0004.31,0001.44,0001.23
2023-11-29 15:25:00,SystemResetWarning,0826.0,5.01,000.00,019.1,018.4,000.0,027.2,020.3,8.6,0000.0,0004.40,0001.48,0001.25
2023-11-29 15:26:00,SystemResetWarning,0825.9,5.00,000.00,019.1,018.4,000.0,027.3,020.3,8.2,0000.0,0004.43,0001.49,0001.27
2023-11-29 15:27:00,SystemResetWarning,0825.9,5.00,000.00,019.1,018.5,000.0,027.3,020.3,7.9,0000.0,0004.35,0001.49,0001.27
2023-11-29 15:28:00,SystemResetWarning,0826.0,5.00,000.00,019.1,018.5,000.0,027.3,020.4,8.3,0000.0,0004.44,0001.49,0001.28
2023-11-29 15:29:00,SystemResetWarning,0825.9,5.00,000.00,019.1,018.5,000.0,027.3,020.4,8.3,0000.0,0004.39,0001.48,0001.28
2023-11-29 15:30:00,SystemResetWarning,0825.9,5.00,000.00,019.1,018.5,000.0,027.3,020.4,8.5,0000.0,0003.26,0001.45,0001.27
2023-11-29 15:31:00,SystemResetWarning,0825.9,5.00,000.00,019.1,018.5,000.0,027.3,020.4,8.3,0000.0,0002.13,0001.43,0001.26
2023-11-29 15:32:00,SystemResetWarning,0825.9,4.99,000.00,019.2,018.6,000.0,027.3,020.4,7.9,0000.0,0002.15,0001.43,0001.25
2023-11-29 15:33:00,SystemResetWarning,0825.9,5.01,000.00,019.2,018.6,000.0,027.3,020.4,7.4,0000.0,0002.19,0001.44,0001.24
2023-11-29 15:34:00,SystemResetWarning,0826.1,5.01,000.00,019.2,018.6,000.0,027.3,020.4,7.4,0000.0,0002.26,0001.44,0001.23
2023-11-29 15:35:00,SystemResetWarning,0826.0,5.00,000.00,019.2,018.6,000.0,027.4,020.5,7.6,0000.0,0002.23,0001.41,0001.21
2023-11-29 15:36:00,SystemResetWarning,0825.8,5.00,000.00,019.2,018.6,000.0,027.4,020.5,7.2,0000.0,0002.16,0001.37,0001.18
2023-11-29 15:37:00,SystemResetWarning,0825.9,4.99,000.00,019.2,018.6,000.0,027.4,020.5,7.1,0000.0,0002.18,0001.38,0001.17
2023-11-29 15:38:00,SystemResetWarning,0825.9,5.00,000.00,019.2,018.6,000.0,027.4,020.5,7.2,0000.0,0002.10,0001.36,0001.17
2023-11-29 15:39:00,SystemResetWarning,0825.9,5.00,000.00,019.3,018.7,000.0,027.4,020.5,7.0,0000.0,0001.95,0001.34,0001.16
2023-11-29 15:40:00,SystemResetWarning,0825.9,5.01,000.00,019.3,018.7,000.0,027.4,020.6,6.7,0000.0,0001.91,0001.32,0001.14
2023-11-29 15:41:00,SystemResetWarning,0825.9,5.01,000.00,019.3,018.7,000.0,027.4,020.6,7.0,0000.0,0001.93,0001.32,0001.14
2023-11-29 15:42:00,SystemResetWarning,0825.9,4.99,000.00,019.3,018.7,000.0,027.4,020.6,6.9,0000.0,0001.94,0001.34,0001.14
2023-11-29 15:43:00,SystemResetWarning,0825.9,4.99,000.00,019.3,018.7,000.0,027.5,020.6,6.9,0000.0,0001.90,0001.35,0001.13
2023-11-29 15:44:00,SystemResetWarning,0825.9,4.99,000.00,019.3,018.7,000.0,027.5,020.6,6.8,0000.0,0001.82,0001.32,0001.13
2023-11-29 15:45:00,SystemResetWarning,0825.9,5.00,000.00,019.3,018.7,000.0,027.5,020.6,6.8,0000.0,0001.78,0001.31,0001.13
2023-11-29 15:46:00,SystemResetWarning,0825.9,5.01,000.00,019.3,018.7,000.0,027.5,020.6,6.5,0000.0,0001.78,0001.32,0001.14
2023-11-29 15:47:00,SystemResetWarning,0825.9,5.01,000.00,019.3,018.7,000.0,027.5,020.6,6.6,0000.0,0001.72,0001.31,0001.15
2023-11-29 15:48:00,SystemResetWarning,0825.9,4.99,000.00,019.4,018.7,000.0,027.5,020.6,6.5,0000.0,0001.73,0001.32,0001.16
2023-11-29 15:49:00,SystemResetWarning,0825.8,4.99,000.00,019.4,018.7,000.0,027.5,020.6,6.5,0000.0,0001.70,0001.31,0001.16
2023-11-29 15:50:00,SystemResetWarning,0825.8,5.00,000.00,019.4,018.7,000.0,027.5,020.6,6.6,0000.0,0001.73,0001.33,0001.17
2023-11-29 15:51:00,SystemResetWarning,0825.8,5.01,000.00,019.4,018.7,000.0,027.5,020.6,6.8,0000.0,0001.83,0001.37,0001.19
2023-11-29 15:52:00,SystemResetWarning,0825.8,5.01,000.00,019.4,018.7,000.0,027.5,020.6,7.0,0000.0,0001.82,0001.37,0001.20
2023-11-29 15:53:00,SystemResetWarning,0825.8,5.01,000.00,019.4,018.7,000.0,027.6,020.6,6.9,0000.0,0001.85,0001.38,0001.20
2023-11-29 15:54:00,SystemResetWarning,0825.7,5.00,000.00,019.4,018.7,000.0,027.6,020.6,6.7,0000.0,0001.92,0001.38,0001.21
2023-11-29 15:55:00,SystemResetWarning,0825.7,4.99,000.00,019.4,018.7,000.0,027.6,020.6,6.5,0000.0,0001.95,0001.41,0001.23
2023-11-29 15:56:00,SystemResetWarning,0825.7,4.99,000.00,019.4,018.7,000.0,027.6,020.6,6.5,0000.0,0001.97,0001.42,0001.24
2023-11-29 15:57:00,SystemResetWarning,0825.7,4.99,000.00,019.4,018.7,000.0,027.6,020.6,6.5,0000.0,0002.06,0001.46,0001.26
2023-11-29 15:58:00,SystemResetWarning,0825.7,5.00,000.00,019.4,018.7,000.0,027.6,020.6,6.5,0000.0,0002.13,0001.46,0001.26
2023-11-29 15:59:00,SystemResetWarning,0825.7,5.01,000.00,019.4,018.6,000.0,027.6,020.5,6.5,0000.0,0002.09,0001.45,0001.26
